Wind_Speed
14 16 18 19 19 19 22 26 29 33 36 39 41 43 46 49 52 55 58 61 63 64 65 66 67 67 66 65 63 61 59 56 53 51 49 49 48 49 51 54 57 60 63 65
14 17 18 18 18 21 25 28 31 34 36 39 42 45 48 52 55 58 60 62 63 64 66 66 65 63 61 59 56 53 49 46 43 42 40 38 37 36 36 37 40 44 48 53
14 16 18 18 20 23 27 29 32 35 38 41 44 46 50 54 57 60 61 62 64 64 64 62 60 58 56 53 50 47 44 42 41 39 36 34 32 30 29 29 29 30 33 37
17 18 19 20 23 27 31 32 34 38 41 44 47 49 53 56 59 60 61 62 62 61 59 57 55 53 51 50 47 45 43 42 41 39 36 34 33 32 32 31 30 29 28 28
22 24 25 26 28 31 34 36 38 41 44 47 50 52 52 56 58 59 61 62 61 59 57 55 54 53 51 49 47 46 45 44 42 41 39 38 37 36 35 34 32 31 29 29
25 27 28 29 31 34 37 39 42 44 47 50 53 56 57 58 59 60 61 61 60 58 56 55 53 52 51 50 48 47 46 45 44 42 41 40 39 39 37 36 34 33 31 30
25 27 29 31 33 36 38 41 44 47 51 54 57 60 61 60 60 61 61 59 58 56 55 54 53 52 51 50 48 47 46 43 42 42 42 41 39 38 37 36 35 33 31 29
26 29 31 33 35 37 40 43 47 50 53 56 58 60 60 59 60 60 58 56 56 56 54 54 53 52 51 49 48 46 44 42 41 40 41 40 39 38 37 36 34 33 31 29
27 30 32 34 37 40 44 46 49 52 54 57 59 60 59 59 59 58 57 56 56 56 55 53 52 51 49 47 46 44 42 40 38 37 37 37 37 37 36 35 33 31 30 28
28 30 33 36 39 42 44 46 49 52 55 57 60 60 58 58 58 57 56 56 56 55 54 52 50 49 47 45 44 41 39 36 35 34 33 33 34 34 34 33 31 30 28 27
28 31 33 36 39 41 43 46 50 52 55 57 60 59 58 58 57 56 56 56 56 55 53 52 50 48 46 43 40 38 35 32 31 31 30 30 30 30 31 31 30 28 27 26
30 32 35 37 40 42 44 48 51 53 55 57 60 59 57 56 56 56 56 56 55 53 52 51 49 46 43 39 36 34 32 30 28 27 27 27 26 26 27 27 27 26 26 24
30 33 35 38 41 43 46 49 52 54 56 58 59 58 56 55 55 55 55 56 55 53 52 50 48 45 41 37 33 30 27 25 23 22 22 21 20 20 21 23 24 24 23 23
31 33 35 38 41 43 46 49 52 54 56 58 58 57 55 55 54 54 54 54 54 53 51 48 46 43 39 36 31 27 24 21 19 17 16 14 14 15 17 18 20 21 21 21
31 34 36 39 41 44 47 49 52 53 55 56 57 57 55 54 53 53 53 53 53 52 50 47 44 41 38 35 31 27 22 18 16 13 11 9 10 12 14 15 17 18 19 19
32 34 36 39 42 45 47 50 52 54 55 56 57 56 54 53 52 52 52 51 51 49 48 46 43 41 37 34 30 27 23 19 16 12 7 4 6 8 11 14 16 17 17 18
32 34 36 39 42 45 48 50 53 54 55 56 56 55 53 50 49 49 49 50 49 48 47 44 42 40 37 33 30 27 24 20 16 12 7 4 5 8 10 12 15 16 17 18
32 34 37 40 43 46 48 50 52 54 55 55 55 54 52 48 47 47 47 47 46 45 44 43 41 40 36 33 31 28 24 22 18 14 12 11 10 10 11 13 16 17 18 19
33 35 38 41 44 46 49 50 52 53 54 54 54 52 50 47 45 44 44 44 44 42 42 41 41 39 37 34 32 30 27 24 21 17 16 14 14 13 14 16 18 19 19 21
34 36 39 42 44 46 48 49 51 52 53 52 52 51 48 45 42 41 41 41 41 40 40 40 40 38 36 35 32 31 29 27 24 21 19 18 17 17 18 19 20 21 22 24
35 37 39 42 44 46 48 49 50 51 51 51 50 49 45 43 41 38 37 37 37 36 37 37 38 37 36 35 33 30 29 27 26 25 23 21 21 20 21 21 22 22 23 24
36 38 40 42 44 46 47 48 49 50 50 49 48 47 43 39 38 36 34 34 33 33 33 34 35 36 35 34 33 31 30 28 27 26 25 25 24 24 24 24 24 24 26 27
38 39 41 43 44 45 46 47 47 48 48 47 46 44 42 38 35 33 31 30 30 30 30 31 32 33 34 32 31 30 30 29 28 26 26 27 27 27 26 26 26 26 27 28
39 40 42 43 44 44 45 45 46 46 46 45 44 42 40 36 33 31 29 27 27 26 27 27 28 30 30 30 29 29 29 28 28 27 26 26 26 27 27 28 28 29 30 31
42 42 43 43 43 44 44 44 44 43 43 43 42 40 38 34 30 28 26 24 23 23 23 23 25 25 26 26 27 27 27 27 27 27 26 26 25 26 27 28 28 29 30 30
43 43 43 43 43 43 42 42 42 41 40 39 39 38 36 33 29 26 24 21 20 19 19 19 20 21 22 22 23 23 24 24 24 25 25 26 27 27 27 27 27 28 28 28
44 43 43 42 42 42 41 40 40 39 38 37 37 35 34 31 28 25 22 19 17 16 15 15 15 16 17 18 19 19 20 20 21 22 23 24 24 24 24 25 25 25 25 25
Wind_Direction
327 323 327 330 327 322 319 319 318 319 320 320 320 320 319 317 316 316 315 313 312 310 308 307 305 304 302 301 299 298 297 295 293 291 289 286 283 279 274 269 265 262 260 258
325 323 328 330 325 319 318 319 320 320 320 321 321 321 320 319 317 316 314 313 312 310 309 307 306 305 303 302 301 300 298 296 293 292 290 288 286 283 279 275 271 266 263 260
324 326 330 329 324 320 321 324 325 324 324 323 322 322 321 319 318 317 316 315 313 311 310 308 307 306 304 303 301 298 296 293 291 289 287 285 282 280 280 280 278 276 272 266
330 331 334 335 329 328 328 330 329 328 326 325 325 325 324 321 320 318 317 315 314 312 310 308 306 305 303 302 299 297 295 292 288 284 282 279 277 276 276 277 276 276 277 275
336 336 337 336 334 332 330 333 331 329 328 327 326 326 325 322 321 320 319 318 317 315 313 310 308 306 304 301 298 295 292 289 285 281 278 275 273 273 274 274 273 272 272 273
333 333 334 334 333 332 332 332 332 331 330 329 328 328 328 326 324 323 322 321 319 317 315 312 309 307 304 301 298 294 292 288 283 280 277 274 271 270 270 270 270 269 269 269
329 330 331 333 333 333 331 332 332 332 332 332 332 330 330 328 327 325 324 323 321 319 317 314 311 308 306 302 299 296 292 288 283 279 276 273 270 268 267 266 266 266 265 266
328 328 330 332 331 332 333 334 334 334 334 333 332 331 330 329 328 327 327 326 324 323 321 317 314 311 308 305 302 297 293 289 285 279 275 272 269 266 264 263 261 261 261 261
327 327 328 330 333 335 335 336 335 334 333 333 333 332 332 331 330 330 329 328 327 325 324 322 318 315 312 309 305 300 295 291 286 281 277 273 268 264 261 259 257 256 256 255
325 326 330 334 335 335 335 334 334 334 334 334 334 334 333 333 333 332 332 331 330 329 327 326 323 319 316 312 308 304 300 294 287 283 279 274 267 261 257 254 253 251 250 250
327 329 331 333 333 333 333 334 335 335 335 335 336 336 335 335 335 335 335 335 334 332 331 330 328 325 320 315 312 307 304 298 291 285 279 274 267 259 253 249 247 244 243 244
328 329 331 332 333 334 335 336 336 337 337 338 338 338 338 338 338 338 339 339 338 337 335 334 334 332 328 323 319 313 306 301 296 289 280 275 267 257 249 243 239 237 236 236
326 329 331 332 334 336 336 337 338 339 339 340 340 340 340 340 341 341 342 342 343 341 340 340 339 339 337 333 329 323 316 309 303 295 286 275 263 250 241 235 231 229 228 229
326 329 331 333 335 336 337 338 339 340 341 341 342 342 342 343 344 344 345 346 346 346 346 346 345 345 345 343 340 334 328 320 312 304 294 277 255 241 233 227 223 220 220 220
327 330 333 335 336 337 338 339 340 342 343 343 344 345 345 345 347 348 348 349 349 350 351 352 352 352 352 351 351 348 345 340 331 319 302 279 249 234 225 217 211 208 210 211
328 331 333 335 336 337 338 339 341 343 344 345 346 347 347 348 349 350 351 352 353 354 355 357 359 360 360 360 1 1 0 357 352 345 327 285 226 211 203 197 194 195 198 196
328 331 333 334 336 337 338 340 342 344 346 347 348 348 349 350 350 352 354 356 358 358 0 3 5 6 7 9 9 10 10 12 14 21 37 77 134 157 167 173 177 180 179 178
327 330 332 333 335 337 339 341 343 345 346 348 348 349 349 351 352 355 357 0 2 3 5 8 10 13 14 16 17 18 19 24 33 45 62 83 102 121 138 147 154 158 162 164
327 329 331 333 335 337 338 340 342 344 346 348 348 349 350 352 353 356 359 2 5 8 10 13 16 18 20 23 25 27 30 35 43 57 70 82 93 106 120 132 139 145 150 153
324 327 329 332 334 335 337 339 341 344 345 347 348 349 351 352 355 357 0 3 7 11 14 17 20 23 26 29 30 33 37 43 51 60 70 80 91 103 113 123 129 134 140 143
322 325 328 330 332 334 336 338 340 342 344 346 348 350 351 353 356 358 1 5 9 12 15 19 22 26 28 31 35 40 45 52 59 66 72 80 90 100 109 118 124 130 135 138
319 322 325 327 329 331 334 336 338 340 342 345 347 349 351 353 355 357 360 4 9 12 16 19 23 27 30 34 39 46 51 56 63 68 73 81 89 97 106 112 117 123 128 130
315 318 322 324 326 329 331 333 335 338 340 343 346 348 350 352 355 358 1 4 9 13 16 21 25 29 33 38 42 47 51 57 64 71 77 82 88 93 100 106 111 117 122 127
311 314 317 320 323 325 328 330 333 336 338 341 344 347 350 351 353 357 0 4 8 13 17 21 26 31 36 41 46 50 54 60 66 72 79 85 89 93 98 103 107 112 118 123
306 310 313 316 319 321 324 327 330 333 336 339 343 345 347 349 351 354 358 2 6 13 18 22 28 33 40 45 49 54 59 63 69 75 81 87 92 97 101 104 107 111 116 120
302 305 308 311 314 317 320 324 327 331 334 337 340 343 345 347 349 351 355 358 2 9 16 22 29 34 40 48 53 57 61 66 72 79 85 89 94 98 101 104 108 113 117 120
298 300 303 307 310 313 316 320 324 327 331 334 337 340 343 345 346 347 350 354 358 2 9 17 27 36 41 46 54 59 64 68 74 81 87 90 93 97 101 105 109 113 117 120
Height
5850 5847 5844 5842 5839 5836 5832 5829 5824 5820 5814 5809 5803 5796 5789 5781 5773 5765 5756 5747 5738 5729 5719 5710 5701 5691 5683 5674 5666 5659 5652 5646 5640 5635 5631 5627 5625 5623 5622 5622 5624 5627 5630 5634
5848 5845 5842 5840 5836 5832 5829 5825 5820 5814 5809 5802 5795 5788 5780 5771 5762 5753 5744 5734 5724 5714 5703 5693 5683 5674 5665 5657 5650 5643 5637 5631 5626 5621 5617 5614 5611 5608 5606 5605 5606 5607 5609 5612
5847 5843 5840 5838 5834 5829 5824 5820 5814 5808 5803 5795 5788 5780 5771 5761 5751 5741 5730 5719 5708 5698 5687 5676 5667 5658 5649 5642 5635 5629 5623 5618 5613 5609 5606 5603 5600 5598 5597 5595 5594 5594 5594 5595
5843 5841 5837 5836 5828 5823 5818 5813 5807 5800 5793 5785 5778 5770 5761 5749 5737 5727 5716 5705 5694 5682 5672 5662 5652 5643 5635 5628 5621 5615 5610 5605 5601 5597 5594 5592 5590 5588 5587 5585 5585 5584 5583 5583
5838 5834 5831 5828 5823 5817 5811 5806 5799 5792 5785 5777 5768 5760 5752 5739 5726 5714 5702 5689 5677 5666 5655 5646 5636 5627 5619 5612 5606 5600 5595 5591 5587 5584 5581 5579 5578 5577 5576 5575 5574 5574 5574 5574
5834 5830 5826 5824 5818 5811 5805 5798 5791 5783 5775 5766 5756 5746 5738 5725 5712 5699 5687 5674 5662 5651 5640 5630 5620 5611 5603 5596 5589 5584 5579 5575 5571 5568 5566 5565 5564 5563 5563 5563 5563 5563 5564 5564
5830 5826 5822 5817 5811 5806 5800 5794 5784 5775 5765 5755 5744 5733 5722 5710 5699 5686 5673 5660 5648 5636 5625 5614 5604 5594 5586 5579 5572 5566 5561 5558 5554 5552 5550 5549 5549 5549 5549 5550 5551 5552 5553 5554
5826 5822 5818 5812 5806 5800 5793 5784 5775 5765 5755 5745 5736 5724 5712 5700 5687 5674 5661 5648 5636 5623 5612 5600 5588 5578 5570 5562 5555 5549 5544 5540 5538 5535 5534 5533 5534 5534 5535 5537 5538 5540 5542 5544
5823 5819 5812 5805 5798 5791 5783 5775 5766 5758 5748 5737 5727 5715 5702 5689 5675 5662 5649 5636 5624 5611 5599 5587 5574 5563 5554 5546 5538 5532 5528 5524 5521 5519 5518 5517 5518 5519 5521 5523 5526 5529 5531 5534
5817 5811 5805 5799 5792 5785 5777 5770 5761 5751 5741 5729 5717 5705 5692 5679 5665 5651 5638 5625 5612 5599 5586 5574 5561 5550 5539 5531 5523 5517 5512 5509 5506 5504 5503 5502 5503 5505 5507 5511 5514 5517 5521 5524
5812 5807 5801 5795 5788 5781 5773 5765 5755 5745 5734 5721 5709 5696 5682 5669 5655 5642 5628 5615 5601 5588 5574 5562 5550 5538 5527 5517 5510 5504 5499 5495 5493 5491 5490 5489 5490 5491 5494 5498 5502 5507 5511 5514
5807 5801 5796 5790 5783 5775 5767 5758 5748 5737 5726 5714 5700 5687 5674 5661 5647 5633 5620 5606 5592 5578 5565 5552 5539 5527 5516 5506 5498 5492 5487 5484 5481 5479 5478 5477 5478 5480 5483 5487 5492 5497 5502 5506
5802 5796 5790 5783 5776 5768 5760 5751 5741 5730 5718 5706 5693 5679 5666 5653 5640 5626 5613 5599 5585 5571 5557 5544 5531 5519 5508 5498 5490 5483 5478 5475 5472 5469 5468 5467 5468 5471 5474 5479 5483 5489 5494 5499
5796 5791 5785 5778 5771 5763 5754 5745 5735 5724 5712 5700 5686 5673 5660 5647 5634 5621 5607 5594 5579 5565 5551 5538 5525 5514 5503 5493 5485 5478 5472 5468 5465 5462 5461 5461 5462 5465 5468 5472 5477 5482 5488 5492
5790 5785 5779 5772 5765 5757 5749 5740 5730 5719 5707 5695 5681 5668 5655 5642 5629 5616 5603 5589 5576 5562 5548 5535 5523 5511 5500 5491 5482 5475 5469 5464 5460 5458 5456 5456 5457 5460 5464 5468 5473 5478 5483 5488
5785 5779 5773 5766 5759 5752 5743 5734 5724 5713 5701 5689 5676 5663 5650 5638 5625 5613 5600 5587 5574 5561 5548 5534 5522 5511 5500 5491 5483 5475 5469 5463 5459 5456 5454 5454 5455 5458 5461 5466 5470 5476 5481 5486
5779 5773 5768 5761 5754 5746 5737 5728 5717 5707 5695 5683 5671 5659 5647 5635 5624 5612 5599 5586 5573 5560 5548 5535 5524 5513 5502 5493 5485 5478 5472 5466 5461 5457 5455 5455 5456 5459 5462 5466 5470 5475 5480 5485
5773 5768 5762 5755 5748 5740 5731 5722 5712 5702 5691 5679 5668 5656 5645 5633 5622 5611 5599 5588 5575 5563 5552 5540 5528 5517 5507 5498 5490 5482 5476 5470 5466 5463 5461 5461 5461 5463 5465 5469 5473 5477 5482 5487
5767 5762 5755 5749 5742 5734 5726 5717 5708 5698 5687 5677 5665 5654 5642 5632 5621 5611 5600 5590 5579 5568 5557 5545 5534 5524 5514 5505 5497 5489 5483 5477 5473 5470 5469 5468 5468 5469 5471 5474 5477 5481 5486 5490
5761 5755 5749 5743 5736 5728 5721 5712 5703 5694 5684 5674 5664 5652 5642 5631 5622 5612 5602 5592 5581 5571 5561 5551 5541 5531 5522 5513 5506 5499 5492 5487 5482 5479 5477 5476 5476 5477 5479 5481 5484 5487 5491 5496
5754 5749 5743 5737 5730 5723 5715 5708 5699 5690 5681 5671 5662 5651 5641 5631 5622 5613 5605 5596 5586 5577 5568 5559 5549 5540 5531 5523 5515 5508 5503 5498 5494 5491 5488 5487 5486 5487 5488 5490 5492 5495 5499 5503
5747 5742 5737 5731 5725 5718 5711 5703 5695 5687 5678 5669 5660 5650 5641 5632 5623 5614 5606 5598 5590 5582 5574 5566 5557 5548 5540 5532 5526 5520 5514 5510 5506 5503 5501 5499 5498 5498 5498 5500 5502 5504 5508 5512
5740 5735 5730 5725 5719 5712 5706 5698 5691 5683 5675 5666 5658 5649 5640 5631 5623 5616 5609 5601 5594 5586 5579 5572 5564 5557 5550 5543 5537 5531 5526 5522 5518 5515 5513 5512 5510 5510 5510 5511 5513 5515 5518 5522
5732 5728 5723 5718 5712 5707 5701 5694 5686 5679 5671 5663 5655 5647 5639 5631 5624 5617 5610 5603 5597 5591 5584 5578 5572 5566 5559 5553 5548 5542 5538 5534 5530 5527 5525 5524 5523 5523 5523 5523 5525 5527 5529 5533
5723 5719 5715 5711 5706 5700 5695 5689 5682 5675 5667 5660 5652 5644 5637 5630 5624 5617 5611 5605 5600 5595 5590 5584 5579 5574 5568 5563 5558 5553 5549 5545 5542 5539 5537 5536 5535 5535 5535 5536 5537 5539 5542 5544
5714 5710 5707 5703 5698 5694 5688 5683 5677 5670 5664 5657 5650 5643 5636 5629 5623 5617 5612 5606 5602 5597 5593 5589 5584 5580 5576 5571 5567 5563 5560 5556 5553 5551 5549 5548 5547 5547 5548 5548 5550 5551 5553 5556
5704 5701 5698 5694 5690 5686 5681 5676 5671 5665 5659 5653 5647 5640 5634 5627 5621 5616 5611 5607 5603 5599 5595 5592 5589 5585 5582 5578 5575 5572 5569 5566 5564 5562 5560 5559 5558 5558 5559 5559 5560 5562 5563 5566